STARLINK-35320, 65834

Orbit data source: Space-Track

STARLINK-35320, 65834 is a payload satellite owned by SpaceX/Seattle (US) in LEO that was launched on Mon, 29 Sep 2025 UTC via an FALCON 9 launch vehicle from the Air Force Western Test Range (AFWTR). Payload-class satellites include a variety of spacecraft equipped with specific instruments for various scientific and technological missions. These include communications satellites like Starlink; space stations such as the ISS; scientific satellites like the Hubble; Earth observation satellites from companies like Planet Labs, Umbra, and HawkEye 360; GPS; miniature CubeSats for education and research; and military/defense satellites.

Loading next visibility...
Identifier
65834, 2025-221M
Orbit
LEO
Country
Flag of USUS
Related business
Manufacturer
SpaceX/Seattle
Mission
Operational Commercial Communications
Bus & Motor
STARLINK V2MO, Unknown motor
Mass
575 kg wet, ~530 kg dry
Launch date (UTC)
2025-09-29 (9 months ago)
Launch vehicle
FALCON 9
Launch site
Air Force Western Test Range (AFWTR)
Object type
Payload
Rocket body
Debris
Shape & HBR
Box + 2 Pan, 17.7 m
Radar Cross Section
36.964 m², Large (>1 m²)

Expand to show TLE details & history
Last TLE update: 1 day ago

TLE from 1 day ago
0 STARLINK-35320
1 65834U 25221M   26170.93631786  .00024257  00000-0  82806-3 0  9994
2 65834  53.1601 333.7158 0001141  96.0436 264.0694 15.30214942 40386
Epoch: 2026-06-19T22:28Z
TLE epoch observation values (Epoch: 2026-06-19T22:28:17.863Z)
Latitude
-0.00007°
Longitude
88.48318°
Altitude
476.151 km
Speed
7.629 km/s
True Right ascension
22h 14m 51s
True Declination
0° 00' 00"
Sunlit
Object was in full shadow at epoch
Visualization orbit readout
Latitude
Unknown
Longitude
Unknown
Altitude
Unknown
Speed
Unknown
Apparent Right ascension
Unknown
Apparent Declination
Unknown
Sunlit
N/A
Visualization observer readout
Local Sidereal Time
10:18:33
Azimuth
Unknown
Elevation
Unknown
Doppler factor
Unknown
Orbital elements
Apogee altitude
476.209 km
Perigee altitude
474.645 km
Semi-major axis
6,853.564 km
Eccentricity
0.00011
Inclination
53.1601°
RAAN
333.7158°
Arg. of periapsis
96.0436°
True anomaly
264.0564°
Mean anomaly
264.0694°
Eccentric anomaly
264.0629°
Mean motion
3.82533 °/min
Orbital period
94.11 mins
BSTAR
0.00082806
Loading maneuver chart data...
Computing Atmospheric mass density...
Loading historical data...
Loading historical data...
Loading historical data...
Loading historical data...
Loading historical data...
Loading historical data...
Loading historical data...

Documentation

Showing up to 5 results
|